EW0427 Weather Reports


Display with metric or nautical units.
time (UTC)temp
F
wind
direction
speed
MPH
gust
MPH
rain 1hr
in
rain 24hr
in
rain mn
in
humidity
%
barometer
mb
20260506044545 46 307 3.0 8.0 0.05 0.81 0.04 95 1009.5
20260506043037 47 300 2.0 9.0 0.07 0.80 0.03 95 1009.7
20260506041536 47 299 3.0 7.0 0.07 0.78 0.01 95 1009.9
20260506040054 48 299 3.0 8.0 0.09 0.77 0.00 95 1009.9
20260506034543 48 299 2.0 4.0 0.11 0.76 0.76 95 1010.1
20260506033039 48 299 1.0 5.0 0.12 0.73 0.73 95 1010.2
20260506031553 48 0 0.0 3.0 0.13 0.71 0.71 95 1009.6
20260506030038 48 299 0.0 2.0 0.13 0.68 0.68 95 1009.6
20260506024537 48 299 0.0 3.0 0.13 0.65 0.65 95 1009.4
20260506023037 48 299 2.0 4.0 0.12 0.61 0.61 95 1009.9
20260506021541 48 0 0.0 0.0 0.10 0.58 0.58 95 1009.9
20260506020039 48 0 0.0 2.0 0.07 0.55 0.55 95 1009.6
20260506014539 48 299 1.0 3.0 0.04 0.52 0.52 94 1009.5
20260506013037 48 299 0.0 3.0 0.01 0.49 0.49 94 1009.5
20260506011538 48 0 0.0 0.0 0.04 0.48 0.48 94 1009.3
20260506010042 48 0 0.0 1.0 0.08 0.48 0.48 94 1009.3
20260506004541 48 0 0.0 4.0 0.12 0.48 0.48 94 1009.1
20260506003038 48 299 2.0 5.0 0.17 0.48 0.48 94 1009.2
20260506001537 48 0 0.0 4.0 0.14 0.44 0.44 94 1009.2
20260506000037 48 298 2.0 5.0 0.11 0.40 0.40 94 1009.6
20260505234542 48 298 0.0 11.0 0.07 0.35 0.35 94 1009.7
20260505233041 48 305 1.0 5.0 0.06 0.31 0.31 94 1009.4
20260505231548 48 304 4.0 9.0 0.06 0.30 0.30 94 1009.4
20260505230037 48 302 4.0 8.0 0.09 0.29 0.29 94 1009.6
20260505224537 49 302 2.0 7.0 0.13 0.28 0.28 94 1009.5
20260505223044 49 302 6.0 10.0 0.13 0.24 0.24 93 1009.4
20260505221537 50 309 2.0 7.0 0.15 0.24 0.24 93 1009.5
20260505220041 50 310 5.0 11.0 0.15 0.20 0.20 93 1009.4
20260505214549 52 295 7.0 15.0 0.13 0.15 0.15 93 1009.8
20260505213038 54 317 6.0 11.0 0.09 0.11 0.11 93 1009.1
20260505211538 55 302 5.0 10.0 0.08 0.09 0.09 93 1008.8
20260505210037 55 299 5.0 10.0 0.05 0.05 0.05 92 1009.1
20260505204537 55 298 3.0 8.0 0.02 0.02 0.02 92 1009.0
20260505203036 56 311 6.0 11.0 0.02 0.02 0.02 91 1008.9
20260505201536 56 297 7.0 12.0 0.01 0.01 0.01 90 1008.9
20260505200043 57 309 6.0 9.0 0.00 0.00 0.00 88 1008.9
20260505194539 58 242 7.0 12.0 0.00 0.00 0.00 87 1009.1
20260505193037 59 298 4.0 9.0 0.00 0.00 0.00 86 1009.1
20260505191540 59 292 7.0 16.0 0.00 0.00 0.00 83 1009.1
20260505190039 60 294 7.0 13.0 0.00 0.00 0.00 79 1009.2
20260505184541 61 297 6.0 14.0 0.00 0.00 0.00 78 1009.2
20260505183040 62 296 8.0 17.0 0.00 0.00 0.00 76 1009.1
20260505181540 62 313 9.0 16.0 0.00 0.00 0.00 77 1009.1
20260505180040 61 281 9.0 21.0 0.00 0.00 0.00 77 1008.9
20260505174552 61 299 10.0 19.0 0.00 0.00 0.00 76 1008.9
20260505173038 61 287 9.0 16.0 0.00 0.00 0.00 75 1008.7
20260505171539 61 293 8.0 18.0 0.00 0.00 0.00 74 1008.7
20260505170037 63 286 9.0 19.0 0.00 0.00 0.00 70 1008.6
20260505164537 66 313 13.0 23.0 0.00 0.00 0.00 64 1008.3
20260505163051 68 243 10.0 22.0 0.00 0.00 0.00 61 1008.0
20260505161538 68 281 12.0 22.0 0.00 0.00 0.00 63 1008.0
20260505153037 66 219 7.0 19.0 0.00 0.00 0.00 67 1007.6
20260505151537 65 220 9.0 27.0 0.00 0.00 0.00 68 1008.1
20260505124540 61 196 8.0 17.0 0.00 0.00 0.00 75 1006.9
20260505123043 61 194 5.0 15.0 0.00 0.00 0.00 75 1006.7
20260505121536 62 235 8.0 20.0 0.00 0.00 0.00 73 1006.6
20260505120040 63 258 14.0 25.0 0.00 0.00 0.00 69 1006.7
20260505114537 63 210 10.0 19.0 0.00 0.00 0.00 68 1006.6
20260505113041 63 217 7.0 18.0 0.00 0.00 0.00 69 1006.5
20260505111540 63 246 6.0 16.0 0.00 0.00 0.00 69 1006.2
20260505101538 63 217 8.0 15.0 0.00 0.00 0.00 69 1005.4
20260505100037 63 240 8.0 17.0 0.00 0.00 0.00 69 1005.0
20260505094540 63 236 5.0 12.0 0.00 0.00 0.00 69 1004.8
20260505093037 63 229 5.0 14.0 0.00 0.00 0.00 69 1004.6
20260505091535 64 225 5.0 15.0 0.00 0.00 0.00 68 1004.5
20260505090041 64 206 5.0 16.0 0.00 0.00 0.00 67 1004.6
20260505084538 64 192 7.0 16.0 0.00 0.00 0.00 66 1004.7
20260505083037 65 245 11.0 34.0 0.00 0.00 0.00 65 1004.6
20260505081544 65 182 9.0 19.0 0.00 0.00 0.00 65 1004.4
20260505080038 65 221 9.0 18.0 0.00 0.00 0.00 65 1004.3
20260505074535 66 229 10.0 18.0 0.00 0.00 0.00 64 1004.3
20260505073045 66 240 8.0 25.0 0.00 0.00 0.00 64 1004.2
20260505071549 66 244 9.0 20.0 0.00 0.00 0.00 63 1004.2
20260505070039 66 202 12.0 25.0 0.00 0.00 0.00 64 1004.3
20260505064538 64 209 8.0 14.0 0.00 0.00 0.00 67 1004.4
20260505063036 63 215 8.0 17.0 0.00 0.00 0.00 72 1004.5
20260505061533 62 227 2.0 10.0 0.00 0.00 0.00 73 1004.7
20260505060039 62 196 2.0 7.0 0.00 0.00 0.00 73 1005.1
20260505054552 62 249 3.0 11.0 0.00 0.00 0.00 73 1005.3